Location: Bydgoszcz
(53.1222°N, 17.9945°E)
Time: 06:24:24
(UTC+02:00)

OTV 5 (USA 277) - Visible Passes

Search period start: 18 October 2019 00:00
Search period end: 27 October 2019 23:00
Orbit: 310 x 324 km, 54.5° (Epoch: 08 October)

Date Brightness Start Highest point End Pass type
(mag) Time Alt. Az. Time Alt. Az. Time Alt. Az.
18 Oct ? 05:05:07 24° SE 05:05:07 24° SE 05:06:25 10° SE visible
18 Oct ? 06:36:33 10° WSW 06:37:31 11° SW 06:38:30 10° SSW visible
19 Oct ? 05:19:36 18° SSE 05:19:36 18° SSE 05:20:37 10° SSE visible
20 Oct ? 05:34:13 10° S 05:34:13 10° S 05:34:18 10° S visible
